Precipitable_Water
0.45 0.34 0.31 0.31 0.33 0.34 0.32 0.30 0.28 0.28 0.26 0.24 0.23 0.21 0.21 0.23 0.26 0.31 0.37 0.49 0.58 0.54 0.55 0.54 0.58 0.58 0.64 0.71 0.80 0.89 0.96 0.98 1.03 1.01 1.02 1.04 1.07 1.13 1.07 1.10 1.16 1.26 1.24 1.35 1.36 1.39 1.43 1.47 1.57 1.58 1.62 1.63 1.66 1.70 1.71 1.72 1.76 1.81 1.82 1.82 1.78 1.87 1.91 1.84 1.83 1.83 1.83 1.80 1.83 1.86 1.82 1.81 1.90 1.98 2.06 2.08 2.12 2.12 2.12 2.15 2.16 2.16 2.14 2.11 2.12 2.15
0.41 0.31 0.31 0.32 0.34 0.35 0.32 0.31 0.29 0.27 0.25 0.23 0.21 0.19 0.20 0.20 0.25 0.29 0.37 0.46 0.56 0.53 0.59 0.55 0.56 0.60 0.65 0.70 0.78 0.88 0.89 0.90 0.96 0.97 1.00 1.04 1.05 1.12 1.13 1.13 1.17 1.21 1.28 1.33 1.34 1.39 1.42 1.48 1.52 1.58 1.58 1.60 1.59 1.65 1.65 1.64 1.69 1.75 1.80 1.77 1.78 1.83 1.85 1.85 1.84 1.81 1.81 1.85 1.83 1.80 1.85 1.90 1.91 1.93 1.96 1.98 2.07 2.11 2.14 2.18 2.20 2.17 2.13 2.12 2.11 2.13
0.35 0.30 0.31 0.35 0.36 0.35 0.32 0.29 0.29 0.25 0.23 0.22 0.19 0.18 0.19 0.23 0.28 0.34 0.39 0.46 0.54 0.47 0.54 0.51 0.52 0.60 0.64 0.70 0.77 0.81 0.87 0.96 0.99 1.03 1.05 1.04 1.04 1.08 1.08 1.09 1.13 1.17 1.18 1.27 1.30 1.34 1.36 1.41 1.49 1.54 1.57 1.59 1.61 1.58 1.59 1.62 1.64 1.68 1.73 1.79 1.77 1.77 1.81 1.86 1.86 1.83 1.79 1.85 1.89 1.89 1.92 1.93 1.91 2.01 2.01 2.00 2.05 2.07 2.07 2.14 2.17 2.13 2.11 2.10 2.09 2.11
0.29 0.31 0.32 0.36 0.36 0.32 0.28 0.27 0.26 0.24 0.22 0.19 0.17 0.18 0.17 0.21 0.21 0.37 0.34 0.41 0.50 0.48 0.52 0.46 0.54 0.63 0.65 0.72 0.75 0.86 0.91 0.95 0.97 1.01 1.04 1.09 1.06 1.03 1.04 1.08 1.09 1.10 1.16 1.17 1.25 1.28 1.37 1.44 1.47 1.52 1.53 1.54 1.56 1.55 1.51 1.55 1.58 1.62 1.65 1.71 1.73 1.75 1.79 1.82 1.87 1.88 1.91 1.91 1.91 1.95 1.93 1.96 1.95 1.90 1.97 1.99 2.03 2.01 1.99 1.99 2.10 2.10 2.09 2.09 2.08 2.12
0.32 0.33 0.36 0.35 0.34 0.29 0.25 0.25 0.24 0.22 0.19 0.18 0.16 0.15 0.16 0.19 0.19 0.20 0.33 0.40 0.42 0.46 0.50 0.54 0.49 0.46 0.56 0.64 0.66 0.75 0.89 0.91 0.95 0.98 1.01 1.07 1.08 1.09 1.09 1.08 1.10 1.11 1.16 1.17 1.19 1.24 1.32 1.35 1.37 1.39 1.42 1.48 1.45 1.44 1.46 1.49 1.53 1.58 1.60 1.65 1.68 1.72 1.75 1.78 1.83 1.85 1.88 1.87 1.83 1.85 1.87 1.88 1.86 1.90 1.91 1.89 1.88 1.92 1.92 1.90 1.93 2.00 2.06 2.07 2.06 2.09
0.32 0.34 0.35 0.33 0.30 0.28 0.25 0.24 0.22 0.19 0.18 0.17 0.17 0.16 0.16 0.16 0.19 0.23 0.28 0.31 0.33 0.36 0.45 0.47 0.34 0.35 0.50 0.60 0.67 0.71 0.78 0.84 0.92 0.93 0.96 1.01 1.05 1.07 1.05 1.04 1.12 1.16 1.21 1.18 1.17 1.21 1.27 1.30 1.34 1.38 1.43 1.43 1.43 1.43 1.48 1.55 1.60 1.62 1.63 1.66 1.68 1.71 1.73 1.72 1.76 1.81 1.80 1.75 1.68 1.64 1.61 1.58 1.59 1.58 1.64 1.69 1.72 1.77 1.78 1.79 1.88 1.93 1.99 1.98 1.99 2.05
0.31 0.35 0.31 0.30 0.29 0.26 0.25 0.23 0.21 0.20 0.16 0.16 0.18 0.18 0.17 0.17 0.19 0.24 0.27 0.26 0.33 0.30 0.48 0.44 0.28 0.35 0.56 0.56 0.61 0.68 0.76 0.78 0.89 0.92 0.94 0.98 1.01 1.05 1.05 1.07 1.11 1.12 1.16 1.23 1.26 1.27 1.25 1.30 1.33 1.36 1.38 1.41 1.43 1.48 1.60 1.66 1.67 1.69 1.70 1.70 1.70 1.69 1.71 1.70 1.69 1.72 1.70 1.67 1.65 1.62 1.59 1.58 1.54 1.51 1.57 1.66 1.72 1.78 1.85 1.91 1.88 1.90 1.96 1.99 1.98 2.02
0.31 0.32 0.29 0.31 0.29 0.26 0.23 0.23 0.21 0.19 0.17 0.15 0.20 0.21 0.18 0.19 0.20 0.24 0.26 0.27 0.30 0.31 0.38 0.41 0.32 0.28 0.41 0.56 0.63 0.70 0.71 0.75 0.80 0.85 0.91 0.95 1.03 1.04 1.05 1.09 1.09 1.14 1.19 1.21 1.25 1.28 1.33 1.35 1.37 1.37 1.44 1.48 1.53 1.59 1.67 1.67 1.69 1.69 1.69 1.70 1.70 1.68 1.66 1.64 1.63 1.65 1.69 1.61 1.62 1.60 1.59 1.60 1.58 1.57 1.56 1.63 1.68 1.81 1.82 1.85 1.87 1.94 1.97 1.98 1.96 1.96
0.28 0.26 0.28 0.29 0.27 0.25 0.23 0.22 0.22 0.20 0.17 0.18 0.21 0.22 0.24 0.23 0.28 0.28 0.28 0.31 0.34 0.28 0.34 0.38 0.42 0.24 0.30 0.61 0.63 0.65 0.65 0.69 0.74 0.80 0.87 0.95 1.01 1.01 1.06 1.07 1.12 1.18 1.25 1.30 1.30 1.32 1.34 1.38 1.41 1.45 1.45 1.52 1.58 1.61 1.62 1.61 1.62 1.62 1.61 1.60 1.60 1.58 1.60 1.62 1.63 1.62 1.64 1.66 1.64 1.61 1.59 1.58 1.63 1.65 1.67 1.72 1.75 1.75 1.81 1.77 1.82 1.85 1.89 1.90 1.90 1.91
0.27 0.29 0.30 0.31 0.28 0.25 0.24 0.24 0.23 0.21 0.17 0.22 0.25 0.25 0.26 0.27 0.25 0.28 0.29 0.31 0.34 0.25 0.28 0.40 0.41 0.27 0.35 0.54 0.54 0.63 0.65 0.69 0.72 0.78 0.86 0.96 0.99 1.04 1.04 1.07 1.15 1.24 1.30 1.35 1.38 1.38 1.41 1.43 1.45 1.48 1.49 1.49 1.52 1.58 1.61 1.61 1.61 1.60 1.60 1.57 1.55 1.54 1.59 1.63 1.65 1.67 1.67 1.68 1.66 1.61 1.60 1.59 1.63 1.70 1.75 1.78 1.76 1.75 1.78 1.74 1.73 1.73 1.74 1.76 1.78 1.81
0.31 0.33 0.37 0.32 0.29 0.28 0.26 0.25 0.23 0.21 0.21 0.23 0.25 0.26 0.27 0.29 0.30 0.30 0.32 0.34 0.31 0.26 0.33 0.44 0.41 0.30 0.27 0.50 0.55 0.48 0.58 0.73 0.77 0.79 0.90 0.97 1.03 1.08 1.10 1.09 1.18 1.24 1.29 1.34 1.39 1.41 1.43 1.49 1.51 1.52 1.47 1.50 1.52 1.56 1.57 1.56 1.57 1.58 1.56 1.57 1.54 1.55 1.60 1.65 1.66 1.69 1.66 1.70 1.69 1.68 1.66 1.66 1.65 1.68 1.68 1.67 1.68 1.73 1.73 1.70 1.71 1.72 1.71 1.74 1.74 1.76
0.30 0.32 0.32 0.33 0.33 0.31 0.28 0.24 0.22 0.21 0.23 0.23 0.25 0.27 0.26 0.31 0.33 0.31 0.35 0.35 0.27 0.28 0.36 0.36 0.36 0.39 0.25 0.47 0.57 0.65 0.72 0.76 0.76 0.75 0.81 0.89 0.99 1.05 1.08 1.11 1.17 1.25 1.29 1.33 1.39 1.41 1.45 1.46 1.47 1.48 1.46 1.48 1.51 1.54 1.55 1.57 1.59 1.59 1.58 1.58 1.53 1.55 1.59 1.63 1.70 1.73 1.72 1.72 1.74 1.75 1.74 1.71 1.71 1.69 1.65 1.63 1.61 1.65 1.67 1.69 1.68 1.75 1.77 1.76 1.75 1.77
0.27 0.29 0.32 0.30 0.34 0.29 0.26 0.21 0.20 0.20 0.21 0.21 0.22 0.23 0.22 0.20 0.27 0.24 0.33 0.29 0.26 0.25 0.41 0.37 0.36 0.33 0.28 0.47 0.63 0.60 0.68 0.72 0.82 0.86 0.86 0.93 0.99 1.07 1.11 1.12 1.19 1.26 1.29 1.32 1.36 1.39 1.41 1.37 1.36 1.36 1.40 1.43 1.44 1.46 1.51 1.53 1.56 1.57 1.56 1.54 1.50 1.53 1.60 1.62 1.68 1.69 1.72 1.73 1.76 1.79 1.79 1.77 1.76 1.72 1.69 1.66 1.64 1.66 1.64 1.66 1.67 1.68 1.71 1.75 1.73 1.76
0.26 0.29 0.29 0.29 0.28 0.28 0.24 0.17 0.18 0.16 0.18 0.20 0.20 0.23 0.22 0.22 0.22 0.20 0.22 0.25 0.24 0.36 0.39 0.35 0.39 0.28 0.44 0.57 0.63 0.63 0.71 0.79 0.80 0.92 0.99 1.01 1.03 1.10 1.11 1.15 1.21 1.27 1.29 1.33 1.36 1.37 1.37 1.36 1.36 1.36 1.33 1.34 1.37 1.40 1.42 1.44 1.45 1.48 1.51 1.52 1.50 1.50 1.57 1.59 1.60 1.61 1.63 1.67 1.72 1.79 1.82 1.83 1.82 1.78 1.77 1.75 1.72 1.72 1.71 1.68 1.65 1.66 1.68 1.70 1.74 1.76
0.21 0.19 0.23 0.25 0.22 0.24 0.21 0.19 0.20 0.20 0.19 0.20 0.22 0.22 0.22 0.23 0.23 0.19 0.23 0.21 0.22 0.35 0.38 0.41 0.28 0.35 0.33 0.56 0.63 0.72 0.79 0.81 0.84 0.97 1.07 1.09 1.12 1.16 1.20 1.21 1.22 1.25 1.31 1.36 1.37 1.36 1.35 1.35 1.35 1.32 1.34 1.35 1.36 1.38 1.42 1.44 1.44 1.42 1.38 1.36 1.32 1.30 1.35 1.37 1.39 1.42 1.45 1.50 1.57 1.62 1.69 1.73 1.75 1.74 1.74 1.76 1.79 1.80 1.76 1.77 1.72 1.72 1.75 1.73 1.75 1.74
0.21 0.23 0.30 0.28 0.28 0.25 0.21 0.23 0.22 0.21 0.21 0.24 0.24 0.24 0.26 0.25 0.29 0.21 0.27 0.24 0.27 0.30 0.36 0.44 0.34 0.48 0.47 0.66 0.73 0.76 0.77 0.81 0.86 1.02 1.04 1.05 1.10 1.14 1.16 1.18 1.21 1.27 1.31 1.35 1.37 1.36 1.35 1.35 1.35 1.34 1.33 1.33 1.33 1.34 1.35 1.35 1.33 1.29 1.27 1.24 1.19 1.15 1.16 1.17 1.16 1.16 1.16 1.16 1.19 1.21 1.23 1.28 1.35 1.43 1.49 1.55 1.61 1.66 1.70 1.71 1.71 1.70 1.73 1.75 1.76 1.78
0.19 0.20 0.30 0.29 0.28 0.25 0.27 0.26 0.22 0.23 0.18 0.25 0.24 0.23 0.27 0.32 0.29 0.30 0.35 0.34 0.31 0.28 0.27 0.47 0.41 0.47 0.60 0.57 0.70 0.72 0.74 0.80 0.89 0.95 0.98 1.01 1.07 1.12 1.13 1.18 1.24 1.27 1.30 1.34 1.35 1.35 1.33 1.32 1.29 1.25 1.23 1.23 1.23 1.21 1.19 1.19 1.20 1.18 1.16 1.11 1.09 1.09 1.10 1.10 1.10 1.11 1.14 1.13 1.12 1.11 1.13 1.12 1.14 1.14 1.14 1.18 1.22 1.30 1.40 1.47 1.54 1.59 1.63 1.70 1.72 1.73
0.19 0.24 0.28 0.29 0.27 0.27 0.30 0.27 0.27 0.27 0.25 0.26 0.25 0.32 0.35 0.36 0.36 0.30 0.26 0.37 0.32 0.28 0.34 0.35 0.33 0.40 0.43 0.40 0.79 0.68 0.72 0.75 0.84 0.91 0.98 1.03 1.09 1.08 1.12 1.19 1.24 1.26 1.29 1.35 1.39 1.37 1.31 1.26 1.18 1.13 1.13 1.17 1.17 1.14 1.11 1.12 1.13 1.11 1.10 1.09 1.07 1.09 1.11 1.14 1.16 1.17 1.17 1.17 1.13 1.12 1.11 1.11 1.07 1.06 1.07 1.07 1.06 1.12 1.15 1.19 1.23 1.32 1.43 1.53 1.61 1.65
0.25 0.24 0.27 0.32 0.33 0.33 0.35 0.33 0.31 0.34 0.37 0.30 0.31 0.38 0.25 0.25 0.28 0.48 0.31 0.25 0.27 0.24 0.28 0.33 0.40 0.35 0.40 0.51 0.71 0.65 0.67 0.72 0.81 0.95 0.97 0.98 1.05 1.08 1.13 1.20 1.26 1.29 1.32 1.34 1.33 1.30 1.23 1.14 1.09 1.09 1.09 1.12 1.13 1.13 1.12 1.12 1.13 1.09 1.08 1.11 1.11 1.10 1.12 1.15 1.19 1.22 1.23 1.24 1.24 1.23 1.20 1.13 1.10 1.09 1.07 1.08 1.09 1.11 1.09 1.06 1.09 1.13 1.18 1.27 1.34 1.44
0.24 0.23 0.29 0.33 0.32 0.36 0.36 0.31 0.26 0.35 0.37 0.38 0.39 0.34 0.38 0.31 0.30 0.30 0.33 0.31 0.27 0.26 0.29 0.31 0.40 0.35 0.50 0.52 0.64 0.73 0.73 0.77 0.84 0.90 0.94 1.01 1.08 1.11 1.16 1.21 1.24 1.28 1.31 1.30 1.26 1.18 1.14 1.12 1.11 1.09 1.09 1.10 1.11 1.12 1.14 1.14 1.17 1.17 1.17 1.16 1.15 1.16 1.15 1.15 1.15 1.16 1.16 1.20 1.19 1.19 1.20 1.21 1.25 1.15 1.09 1.10 1.04 1.04 1.05 1.03 1.03 1.06 1.07 1.13 1.23 1.26
0.23 0.27 0.24 0.32 0.37 0.30 0.29 0.32 0.30 0.34 0.30 0.34 0.35 0.34 0.37 0.38 0.42 0.35 0.35 0.33 0.32 0.30 0.28 0.29 0.29 0.42 0.55 0.72 0.68 0.76 0.81 0.85 0.88 0.88 0.98 1.06 1.09 1.15 1.20 1.23 1.28 1.32 1.30 1.25 1.16 1.11 1.11 1.14 1.13 1.11 1.12 1.13 1.15 1.17 1.17 1.16 1.17 1.19 1.22 1.21 1.23 1.17 1.18 1.17 1.16 1.16 1.17 1.19 1.17 1.15 1.11 1.14 1.15 1.15 1.17 1.08 1.02 1.02 1.02 1.03 1.03 1.02 1.01 1.06 1.10 1.14
0.22 0.21 0.22 0.28 0.28 0.28 0.34 0.39 0.37 0.36 0.34 0.34 0.34 0.33 0.38 0.34 0.34 0.31 0.32 0.44 0.39 0.35 0.32 0.30 0.29 0.44 0.62 0.85 0.83 0.71 0.89 0.92 0.95 0.98 1.04 1.08 1.11 1.16 1.22 1.29 1.35 1.31 1.27 1.21 1.13 1.11 1.15 1.16 1.15 1.16 1.19 1.19 1.18 1.17 1.17 1.18 1.18 1.17 1.17 1.18 1.20 1.19 1.18 1.17 1.15 1.18 1.19 1.19 1.22 1.18 1.16 1.17 1.17 1.14 1.15 1.12 1.08 1.03 1.00 1.00 1.02 1.04 1.01 1.02 1.03 1.06
0.25 0.26 0.19 0.20 0.26 0.31 0.37 0.41 0.43 0.42 0.41 0.41 0.39 0.37 0.40 0.38 0.37 0.34 0.28 0.35 0.40 0.39 0.39 0.35 0.32 0.47 0.72 0.85 0.87 0.89 0.92 0.97 1.01 1.06 1.03 1.07 1.12 1.19 1.29 1.36 1.38 1.31 1.25 1.21 1.15 1.15 1.17 1.16 1.14 1.15 1.17 1.19 1.19 1.20 1.21 1.21 1.22 1.23 1.24 1.27 1.28 1.26 1.23 1.22 1.21 1.23 1.22 1.20 1.21 1.18 1.19 1.21 1.15 1.10 1.09 1.05 1.05 1.02 1.00 1.00 1.00 1.04 0.99 0.99 0.99 1.03
0.24 0.22 0.21 0.26 0.32 0.35 0.39 0.42 0.44 0.43 0.43 0.42 0.48 0.46 0.44 0.37 0.39 0.35 0.34 0.39 0.34 0.39 0.37 0.38 0.36 0.54 0.79 0.93 0.99 0.98 1.00 1.05 1.10 1.07 1.05 1.08 1.14 1.25 1.31 1.33 1.29 1.28 1.28 1.25 1.22 1.19 1.14 1.14 1.16 1.19 1.19 1.18 1.17 1.18 1.19 1.21 1.24 1.26 1.26 1.28 1.27 1.23 1.23 1.23 1.22 1.23 1.22 1.23 1.22 1.19 1.17 1.14 1.12 1.11 1.09 1.03 1.00 0.99 0.98 0.99 1.01 1.02 1.01 1.02 1.02 0.98
0.18 0.26 0.27 0.29 0.30 0.34 0.37 0.39 0.40 0.44 0.43 0.40 0.41 0.52 0.47 0.45 0.42 0.43 0.41 0.44 0.33 0.38 0.40 0.35 0.31 0.58 0.84 0.90 0.96 1.01 1.00 0.99 1.02 1.07 1.10 1.12 1.22 1.29 1.29 1.26 1.28 1.29 1.28 1.25 1.22 1.19 1.17 1.18 1.18 1.19 1.24 1.23 1.22 1.23 1.23 1.23 1.26 1.27 1.28 1.34 1.28 1.24 1.23 1.20 1.22 1.19 1.17 1.18 1.17 1.19 1.21 1.19 1.14 1.10 1.08 1.07 1.06 1.00 0.98 0.99 1.00 1.02 1.02 1.02 1.00 1.02
0.22 0.35 0.29 0.26 0.27 0.26 0.28 0.31 0.34 0.36 0.38 0.41 0.46 0.48 0.47 0.45 0.43 0.40 0.36 0.39 0.35 0.44 0.42 0.37 0.37 0.66 0.80 0.86 0.88 0.94 0.96 0.99 1.06 1.10 1.18 1.26 1.27 1.25 1.24 1.28 1.28 1.31 1.32 1.28 1.19 1.20 1.21 1.19 1.20 1.23 1.25 1.29 1.30 1.31 1.30 1.25 1.26 1.29 1.29 1.33 1.28 1.25 1.25 1.23 1.23 1.22 1.21 1.20 1.19 1.20 1.17 1.17 1.14 1.11 1.11 1.09 1.06 1.03 1.00 0.99 1.00 1.01 1.03 1.05 1.03 1.03
0.34 0.37 0.38 0.40 0.34 0.30 0.35 0.36 0.37 0.37 0.39 0.35 0.51 0.46 0.47 0.47 0.45 0.41 0.40 0.37 0.36 0.43 0.39 0.45 0.47 0.63 0.65 0.72 0.82 0.91 0.99 0.99 1.06 1.12 1.20 1.26 1.27 1.30 1.30 1.30 1.32 1.33 1.31 1.30 1.24 1.23 1.18 1.20 1.20 1.21 1.26 1.31 1.32 1.32 1.31 1.27 1.27 1.28 1.29 1.28 1.28 1.30 1.28 1.24 1.22 1.25 1.26 1.22 1.21 1.19 1.16 1.14 1.13 1.14 1.14 1.10 1.07 1.05 1.02 1.01 1.00 0.99 0.99 1.03 1.04 1.05
0.34 0.33 0.37 0.36 0.35 0.37 0.38 0.37 0.39 0.40 0.43 0.43 0.42 0.49 0.49 0.48 0.43 0.38 0.36 0.37 0.45 0.34 0.30 0.59 0.59 0.55 0.70 0.76 0.85 0.93 0.99 1.04 1.14 1.26 1.29 1.30 1.32 1.33 1.29 1.27 1.23 1.29 1.31 1.26 1.21 1.17 1.17 1.19 1.23 1.26 1.29 1.33 1.34 1.36 1.33 1.30 1.28 1.28 1.27 1.27 1.27 1.28 1.26 1.25 1.24 1.23 1.23 1.19 1.17 1.14 1.09 1.10 1.08 1.08 1.09 1.09 1.09 1.06 1.05 1.03 1.01 0.99 1.00 1.02 1.00 1.00
0.36 0.33 0.40 0.37 0.39 0.42 0.46 0.46 0.48 0.48 0.48 0.48 0.48 0.50 0.51 0.50 0.48 0.43 0.43 0.46 0.40 0.35 0.38 0.54 0.57 0.59 0.73 0.86 0.92 0.93 0.98 0.97 1.00 0.98 1.09 1.30 1.34 1.34 1.28 1.23 1.25 1.24 1.24 1.21 1.21 1.22 1.22 1.24 1.26 1.30 1.34 1.36 1.37 1.34 1.30 1.28 1.28 1.28 1.27 1.26 1.24 1.22 1.23 1.22 1.21 1.19 1.16 1.13 1.09 1.06 1.05 1.05 1.05 1.06 1.09 1.09 1.08 1.06 1.04 1.03 1.03 1.03 1.03 1.03 1.03 1.02
0.38 0.39 0.38 0.42 0.41 0.43 0.45 0.48 0.50 0.49 0.49 0.52 0.52 0.53 0.55 0.54 0.52 0.51 0.53 0.52 0.51 0.50 0.53 0.56 0.56 0.60 0.71 0.81 0.93 1.02 1.18 1.19 1.18 1.23 1.21 1.11 1.12 1.19 1.27 1.19 1.18 1.19 1.20 1.20 1.22 1.24 1.28 1.30 1.32 1.34 1.37 1.34 1.31 1.28 1.26 1.25 1.23 1.21 1.19 1.18 1.20 1.21 1.20 1.19 1.17 1.13 1.08 1.05 1.02 1.02 1.03 1.02 1.03 1.03 1.04 1.05 1.04 1.04 1.05 1.03 1.01 1.00 0.99 1.01 1.03 1.04
0.38 0.40 0.41 0.43 0.42 0.43 0.47 0.51 0.52 0.53 0.53 0.51 0.55 0.57 0.56 0.57 0.55 0.56 0.55 0.56 0.58 0.60 0.58 0.61 0.59 0.59 0.83 1.03 1.03 1.06 1.11 1.17 1.16 1.17 1.15 1.12 1.12 1.16 1.15 1.13 1.15 1.16 1.22 1.25 1.24 1.24 1.25 1.28 1.30 1.29 1.26 1.23 1.23 1.22 1.20 1.17 1.16 1.16 1.17 1.16 1.16 1.13 1.13 1.12 1.06 1.02 0.98 0.96 0.99 0.99 1.00 0.99 1.00 1.02 1.01 1.01 1.00 1.00 1.00 0.99 0.99 0.98 0.97 0.97 0.98 0.99
0.38 0.48 0.44 0.43 0.37 0.46 0.48 0.50 0.52 0.54 0.56 0.56 0.55 0.56 0.56 0.54 0.53 0.52 0.49 0.56 0.52 0.53 0.58 0.62 0.65 0.69 0.88 1.05 1.05 1.05 1.07 1.01 1.02 1.04 1.06 1.06 1.11 1.13 1.11 1.10 1.10 1.12 1.13 1.14 1.15 1.16 1.17 1.18 1.18 1.15 1.14 1.15 1.15 1.16 1.15 1.13 1.13 1.11 1.07 1.06 1.07 1.06 1.07 1.04 1.00 0.96 0.95 0.96 0.97 0.99 0.98 0.99 1.00 1.01 1.01 1.01 0.99 0.98 0.98 0.98 0.97 0.95 0.96 0.96 0.96 0.97
0.43 0.43 0.37 0.40 0.34 0.41 0.55 0.51 0.48 0.48 0.47 0.47 0.58 0.58 0.57 0.56 0.55 0.57 0.61 0.65 0.63 0.64 0.62 0.61 0.67 0.83 0.90 1.01 0.93 0.93 1.01 1.01 0.99 0.99 0.99 1.03 1.08 1.06 1.02 1.01 1.02 1.03 1.04 1.06 1.07 1.09 1.11 1.11 1.10 1.09 1.09 1.11 1.11 1.10 1.10 1.09 1.05 1.01 1.00 1.01 1.01 1.02 1.01 0.98 0.97 0.95 0.94 0.95 0.96 0.96 0.98 0.99 0.99 0.99 1.00 1.02 1.02 1.02 1.00 0.99 0.97 0.96 0.95 0.93 0.96 0.97
0.43 0.42 0.40 0.44 0.34 0.46 0.52 0.48 0.48 0.41 0.32 0.38 0.69 0.74 0.62 0.55 0.56 0.54 0.58 0.63 0.70 0.74 0.71 0.78 0.80 0.91 0.95 0.97 0.95 0.93 0.93 0.92 0.94 0.96 1.02 1.02 1.01 1.00 0.99 1.00 0.99 1.00 1.01 1.01 1.01 1.02 1.07 1.07 1.08 1.10 1.11 1.08 1.07 1.07 1.07 1.07 1.01 1.01 1.02 1.01 1.00 0.99 0.97 0.95 0.94 0.93 0.93 0.94 0.95 0.96 0.97 0.98 0.98 0.97 0.99 1.01 1.03 1.03 1.01 1.00 0.99 0.99 1.00 0.98 0.97 0.96
0.41 0.42 0.41 0.42 0.35 0.40 0.50 0.45 0.38 0.30 0.32 0.63 0.72 0.67 0.69 0.68 0.68 0.62 0.65 0.71 0.76 0.80 0.82 0.81 0.86 0.91 0.96 0.97 0.95 0.96 0.96 0.98 1.00 0.98 0.98 1.02 1.03 0.98 0.96 0.98 0.97 0.96 0.95 0.95 0.97 1.00 1.02 1.04 1.04 1.03 1.02 1.01 1.03 1.03 1.01 1.02 1.00 0.98 0.97 0.97 0.95 0.98 0.94 0.91 0.90 0.91 0.93 0.91 0.92 0.94 0.95 0.96 0.98 0.97 0.99 1.00 1.01 1.01 1.01 1.01 1.02 1.02 1.02 1.00 0.98 0.97
0.40 0.39 0.40 0.36 0.39 0.43 0.37 0.40 0.25 0.25 0.53 0.60 0.61 0.67 0.73 0.73 0.70 0.68 0.66 0.74 0.82 0.83 0.84 0.80 0.85 0.91 0.95 0.97 1.00 1.02 1.01 1.00 1.00 1.01 1.01 1.01 1.00 0.97 0.93 0.91 0.90 0.90 0.89 0.91 0.94 0.98 0.98 0.98 0.99 0.96 0.98 1.02 1.03 1.00 0.98 0.96 0.96 0.93 0.91 0.96 0.96 0.93 0.90 0.90 0.90 0.90 0.91 0.88 0.90 0.90 0.91 0.92 0.94 0.98 1.01 1.01 1.01 1.01 0.99 1.00 1.02 1.01 1.02 1.02 1.02 1.02
0.41 0.39 0.33 0.32 0.31 0.26 0.28 0.29 0.33 0.53 0.49 0.55 0.59 0.63 0.65 0.61 0.65 0.59 0.54 0.71 0.81 0.85 0.86 0.84 0.87 0.91 0.94 0.96 1.00 1.01 1.01 0.98 0.94 0.95 1.02 1.00 0.98 0.96 0.93 0.90 0.89 0.89 0.89 0.91 0.93 0.94 0.97 0.99 0.99 1.02 1.01 1.01 1.00 0.96 0.93 0.93 0.93 0.91 0.90 0.91 0.90 0.89 0.89 0.89 0.87 0.86 0.85 0.82 0.82 0.82 0.84 0.85 0.87 0.92 0.98 1.02 1.01 0.99 0.97 0.96 0.97 1.00 1.04 1.01 1.01 1.00
0.48 0.35 0.35 0.26 0.25 0.29 0.28 0.30 0.33 0.35 0.33 0.56 0.66 0.70 0.77 0.76 0.75 0.76 0.65 0.63 0.84 0.90 0.95 0.91 0.90 0.93 0.95 0.96 0.96 0.97 0.96 0.87 0.79 0.90 0.99 0.98 0.96 0.92 0.92 0.90 0.89 0.90 0.89 0.90 0.93 0.95 0.96 0.97 0.98 1.02 1.00 0.96 0.95 0.93 0.93 0.93 0.90 0.88 0.86 0.85 0.86 0.85 0.83 0.81 0.79 0.80 0.80 0.80 0.81 0.81 0.82 0.85 0.88 0.89 0.92 0.95 0.95 0.93 0.94 0.96 0.99 1.00 1.04 1.00 1.00 1.00
0.37 0.35 0.34 0.26 0.37 0.30 0.33 0.31 0.34 0.32 0.47 0.63 0.62 0.69 0.77 0.80 0.78 0.80 0.60 0.58 0.87 0.96 0.99 0.98 0.94 0.95 0.94 0.92 0.91 0.92 0.81 0.68 0.71 0.83 0.90 0.91 0.90 0.89 0.85 0.85 0.85 0.85 0.87 0.89 0.89 0.88 0.95 0.93 0.93 0.92 0.93 0.94 0.88 0.90 0.91 0.90 0.87 0.84 0.81 0.80 0.79 0.78 0.76 0.76 0.77 0.79 0.78 0.78 0.79 0.81 0.82 0.85 0.87 0.88 0.88 0.86 0.86 0.88 0.91 0.94 0.96 1.00 1.03 1.03 1.02 1.01
0.31 0.30 0.29 0.29 0.33 0.34 0.36 0.34 0.33 0.45 0.48 0.57 0.62 0.70 0.78 0.83 0.83 0.70 0.42 0.53 0.85 0.97 0.99 0.96 0.91 0.90 0.92 0.89 0.87 0.82 0.73 0.63 0.68 0.76 0.81 0.82 0.83 0.85 0.81 0.80 0.81 0.81 0.84 0.88 0.91 0.89 0.90 0.89 0.88 0.85 0.87 0.86 0.85 0.90 0.89 0.86 0.82 0.78 0.76 0.77 0.78 0.75 0.72 0.74 0.76 0.78 0.78 0.76 0.78 0.81 0.82 0.84 0.85 0.87 0.86 0.86 0.88 0.93 0.95 0.96 0.97 0.98 0.99 0.99 1.00 1.01
0.29 0.33 0.33 0.34 0.37 0.42 0.35 0.37 0.43 0.47 0.58 0.66 0.68 0.75 0.81 0.86 0.73 0.48 0.42 0.68 0.89 0.90 0.93 0.93 0.92 0.90 0.87 0.84 0.81 0.71 0.75 0.74 0.74 0.77 0.81 0.79 0.77 0.78 0.79 0.81 0.81 0.82 0.81 0.83 0.86 0.84 0.83 0.86 0.88 0.85 0.87 0.87 0.87 0.86 0.85 0.82 0.78 0.75 0.77 0.77 0.75 0.71 0.72 0.74 0.75 0.73 0.72 0.74 0.79 0.82 0.83 0.87 0.89 0.88 0.90 0.92 0.92 0.95 0.96 0.97 0.97 0.97 0.96 0.96 0.98 1.00
0.37 0.39 0.38 0.40 0.40 0.39 0.40 0.37 0.44 0.56 0.64 0.70 0.76 0.77 0.85 0.68 0.47 0.48 0.76 0.90 0.85 0.83 0.87 0.86 0.83 0.85 0.83 0.78 0.76 0.73 0.73 0.74 0.76 0.76 0.76 0.76 0.73 0.76 0.76 0.78 0.80 0.83 0.85 0.86 0.88 0.86 0.83 0.85 0.87 0.88 0.87 0.87 0.84 0.83 0.82 0.79 0.75 0.74 0.73 0.72 0.70 0.70 0.72 0.70 0.68 0.69 0.70 0.73 0.76 0.79 0.82 0.86 0.90 0.93 0.93 0.94 0.95 0.94 0.95 0.98 0.97 0.96 0.97 0.95 0.97 0.97
0.49 0.39 0.40 0.41 0.50 0.43 0.42 0.41 0.41 0.37 0.65 0.75 0.72 0.70 0.75 0.59 0.67 0.79 0.82 0.82 0.85 0.83 0.83 0.83 0.81 0.79 0.78 0.73 0.73 0.73 0.72 0.70 0.71 0.73 0.73 0.75 0.75 0.76 0.77 0.78 0.78 0.77 0.79 0.80 0.83 0.85 0.83 0.82 0.82 0.82 0.82 0.83 0.81 0.80 0.79 0.77 0.72 0.69 0.69 0.67 0.64 0.67 0.67 0.65 0.66 0.65 0.68 0.71 0.71 0.75 0.80 0.85 0.87 0.89 0.91 0.92 0.94 0.92 0.92 0.95 0.95 0.95 0.96 0.96 0.95 0.98
0.54 0.44 0.47 0.48 0.53 0.42 0.44 0.41 0.45 0.64 0.70 0.75 0.76 0.64 0.71 0.74 0.82 0.83 0.81 0.76 0.83 0.83 0.80 0.77 0.75 0.74 0.73 0.70 0.69 0.70 0.71 0.74 0.75 0.72 0.76 0.77 0.77 0.78 0.79 0.80 0.79 0.79 0.80 0.83 0.85 0.86 0.84 0.81 0.81 0.82 0.82 0.83 0.80 0.79 0.77 0.72 0.66 0.62 0.60 0.57 0.59 0.61 0.63 0.62 0.63 0.63 0.62 0.67 0.66 0.70 0.76 0.78 0.77 0.79 0.82 0.85 0.88 0.90 0.93 0.95 0.96 0.95 0.93 0.95 0.96 0.92
0.55 0.53 0.60 0.50 0.61 0.54 0.53 0.59 0.69 0.75 0.76 0.79 0.78 0.77 0.80 0.86 0.87 0.86 0.83 0.80 0.77 0.77 0.79 0.73 0.71 0.73 0.72 0.72 0.72 0.69 0.70 0.70 0.72 0.74 0.70 0.72 0.75 0.77 0.74 0.76 0.78 0.79 0.82 0.83 0.83 0.83 0.82 0.80 0.80 0.81 0.81 0.83 0.80 0.79 0.77 0.72 0.63 0.56 0.52 0.52 0.55 0.57 0.58 0.59 0.61 0.61 0.58 0.60 0.62 0.64 0.70 0.72 0.72 0.70 0.72 0.72 0.75 0.76 0.80 0.85 0.92 0.93 0.95 0.95 0.91 0.91
0.66 0.66 0.70 0.62 0.57 0.69 0.73 0.72 0.76 0.75 0.75 0.76 0.81 0.83 0.82 0.83 0.85 0.82 0.79 0.74 0.75 0.74 0.73 0.69 0.68 0.68 0.70 0.69 0.68 0.67 0.68 0.67 0.71 0.74 0.73 0.74 0.73 0.75 0.77 0.79 0.82 0.83 0.83 0.83 0.83 0.80 0.80 0.78 0.78 0.77 0.76 0.79 0.78 0.76 0.72 0.66 0.61 0.54 0.53 0.57 0.56 0.60 0.60 0.59 0.58 0.56 0.55 0.57 0.60 0.61 0.65 0.63 0.67 0.67 0.69 0.68 0.70 0.72 0.73 0.78 0.82 0.85 0.91 0.88 0.86 0.87
0.63 0.66 0.64 0.56 0.62 0.55 0.49 0.71 0.70 0.70 0.75 0.77 0.77 0.81 0.84 0.83 0.81 0.80 0.76 0.74 0.73 0.72 0.71 0.71 0.71 0.71 0.71 0.71 0.66 0.65 0.65 0.66 0.66 0.68 0.70 0.73 0.71 0.73 0.76 0.77 0.79 0.79 0.78 0.78 0.79 0.78 0.76 0.69 0.66 0.66 0.68 0.71 0.69 0.66 0.63 0.62 0.61 0.59 0.59 0.61 0.58 0.61 0.62 0.61 0.57 0.54 0.56 0.57 0.59 0.61 0.62 0.59 0.63 0.64 0.67 0.68 0.66 0.72 0.71 0.75 0.78 0.80 0.82 0.83 0.79 0.78
0.52 0.71 0.59 0.58 0.61 0.56 0.55 0.68 0.73 0.77 0.79 0.79 0.78 0.75 0.74 0.76 0.77 0.77 0.76 0.74 0.73 0.74 0.74 0.74 0.75 0.72 0.71 0.69 0.67 0.67 0.69 0.68 0.66 0.62 0.67 0.69 0.71 0.75 0.76 0.76 0.75 0.74 0.77 0.78 0.78 0.75 0.68 0.60 0.60 0.61 0.60 0.59 0.57 0.59 0.58 0.58 0.57 0.59 0.61 0.60 0.60 0.62 0.62 0.60 0.57 0.55 0.56 0.56 0.57 0.58 0.57 0.56 0.61 0.63 0.65 0.68 0.68 0.69 0.70 0.74 0.73 0.73 0.75 0.75 0.74 0.72
0.63 0.69 0.54 0.58 0.55 0.62 0.69 0.71 0.72 0.74 0.73 0.75 0.78 0.78 0.77 0.76 0.74 0.74 0.74 0.74 0.75 0.73 0.72 0.72 0.70 0.71 0.71 0.69 0.71 0.68 0.66 0.66 0.66 0.67 0.69 0.72 0.74 0.75 0.74 0.72 0.72 0.75 0.75 0.72 0.71 0.66 0.60 0.59 0.58 0.58 0.54 0.52 0.54 0.56 0.55 0.55 0.54 0.57 0.59 0.59 0.61 0.63 0.61 0.59 0.56 0.56 0.56 0.56 0.56 0.56 0.55 0.57 0.59 0.62 0.66 0.67 0.69 0.72 0.73 0.73 0.73 0.73 0.77 0.81 0.79 0.77
0.61 0.54 0.60 0.57 0.50 0.52 0.54 0.62 0.68 0.57 0.56 0.66 0.70 0.73 0.74 0.76 0.74 0.73 0.75 0.74 0.74 0.73 0.74 0.73 0.72 0.72 0.72 0.69 0.69 0.68 0.64 0.66 0.69 0.71 0.71 0.73 0.76 0.75 0.73 0.72 0.73 0.72 0.69 0.67 0.63 0.58 0.57 0.58 0.55 0.54 0.52 0.53 0.56 0.56 0.53 0.51 0.53 0.57 0.58 0.60 0.61 0.62 0.60 0.58 0.55 0.54 0.55 0.54 0.54 0.55 0.53 0.56 0.58 0.62 0.66 0.67 0.68 0.70 0.72 0.79 0.80 0.80 0.78 0.77 0.80 0.80
0.62 0.62 0.67 0.57 0.55 0.59 0.68 0.69 0.76 0.73 0.68 0.69 0.70 0.73 0.74 0.77 0.77 0.73 0.72 0.72 0.73 0.75 0.72 0.70 0.68 0.70 0.68 0.70 0.70 0.69 0.69 0.68 0.68 0.72 0.72 0.74 0.76 0.75 0.74 0.74 0.70 0.65 0.64 0.65 0.62 0.58 0.55 0.54 0.55 0.56 0.54 0.56 0.58 0.56 0.51 0.52 0.55 0.57 0.62 0.62 0.62 0.63 0.60 0.58 0.55 0.54 0.53 0.54 0.54 0.54 0.54 0.56 0.58 0.62 0.64 0.66 0.68 0.71 0.69 0.72 0.79 0.83 0.84 0.83 0.82 0.82
Wind_Speed
5 5 6 4 3 3 5 5 6 6 6 6 6 6 5 4 3 3 2 2 2 4 3 3 3 2 3 4 3 2 1 2 3 3 4 5 6 7 8 8 7 7 7 7 7 7 7 7 7 7 7 6 6 6 6 6 6 6 6 6 6 6 6 6 6 7 7 7 8 9 9 9 9 10 10 10 11 11 11 12 12 12 12 12 13 13
6 7 5 4 4 5 6 6 6 6 5 5 6 5 4 3 3 3 3 2 3 4 4 3 3 2 3 4 3 1 1 1 2 3 4 5 6 7 7 8 8 8 7 7 7 7 7 7 7 7 7 6 6 6 6 7 7 7 6 6 6 6 6 7 7 7 8 8 9 9 9 9 9 9 9 10 10 11 11 11 11 11 11 11 12 12
9 9 5 3 4 6 6 5 6 6 5 5 5 4 3 2 2 3 3 2 4 5 4 4 4 3 3 4 3 2 2 1 3 4 4 5 5 6 7 8 8 8 8 7 7 7 7 7 7 7 7 7 7 6 6 7 7 7 7 7 7 7 7 7 8 8 9 9 9 9 9 10 10 10 10 10 11 10 10 10 10 10 10 11 11 12
9 8 5 4 5 6 6 5 5 6 5 5 5 4 3 3 4 4 3 3 4 6 5 4 4 4 3 4 3 2 2 2 3 3 4 4 5 6 7 7 8 8 8 8 8 7 7 7 7 7 8 8 8 7 7 7 8 8 8 7 7 8 8 8 8 9 9 9 9 9 10 10 10 11 11 10 10 9 9 9 9 9 9 10 10 11
10 6 4 6 6 6 7 5 5 6 5 4 5 6 5 4 6 6 4 3 4 6 5 4 5 5 4 4 2 2 2 2 1 1 2 3 4 5 6 7 7 8 8 8 8 8 7 7 7 8 9 9 9 8 8 8 8 8 7 8 8 8 8 8 9 10 10 9 8 8 9 9 10 10 10 9 8 8 8 8 9 9 9 9 10 10
12 8 6 7 6 6 7 6 5 6 6 4 3 5 7 6 6 6 4 4 5 6 5 5 6 4 3 4 3 3 3 3 2 1 1 2 2 4 5 6 6 7 8 8 8 8 8 8 8 8 9 9 9 9 9 8 8 8 8 8 8 8 8 9 10 11 10 9 8 7 8 8 9 9 8 8 8 8 8 8 8 8 8 9 9 9
11 8 7 8 7 7 8 6 4 5 6 4 4 6 7 7 7 6 6 6 7 6 5 6 7 5 3 4 4 4 4 3 3 2 0 1 2 3 4 5 5 6 7 7 8 8 8 8 8 9 9 9 9 9 9 9 9 8 8 8 8 8 9 9 10 11 10 9 7 7 7 7 8 8 8 8 8 8 8 8 8 8 8 9 9 9
12 11 10 9 8 8 7 6 4 5 6 5 5 7 7 7 8 7 7 8 8 6 5 6 7 7 5 4 4 5 5 4 4 3 1 1 1 2 3 4 5 5 6 7 7 8 9 9 9 9 9 9 10 9 9 9 9 9 9 9 8 9 9 9 10 10 10 10 8 8 7 7 8 8 9 8 8 7 7 7 7 8 8 9 9 9
12 13 11 10 9 7 6 4 4 5 6 5 5 7 7 8 8 8 8 8 7 7 6 5 5 7 5 3 4 5 6 5 5 4 3 2 1 2 2 3 4 5 6 6 7 8 8 9 9 9 9 10 10 10 9 9 9 9 9 9 9 9 9 9 10 10 10 10 9 8 8 8 8 8 8 8 7 7 7 7 7 8 8 9 9 9
11 12 10 10 9 7 5 4 5 6 6 5 5 6 7 7 7 8 8 7 7 7 7 4 5 7 5 3 5 6 6 6 6 5 4 3 2 2 2 3 3 4 5 6 7 7 8 9 9 9 9 10 10 10 10 9 9 9 9 9 9 9 9 9 10 10 10 10 9 8 8 8 8 8 8 8 8 8 8 8 8 7 8 8 8 9
10 10 9 10 10 7 6 5 5 6 5 4 5 6 5 5 6 6 6 6 7 6 5 4 5 7 6 4 5 6 6 6 6 5 4 3 2 2 3 3 3 4 5 6 7 7 9 9 9 9 10 10 10 10 10 9 9 9 9 9 9 9 9 9 10 10 10 10 9 8 8 8 8 8 8 8 8 8 8 8 8 8 8 9 8 8
12 12 11 10 10 8 8 7 5 5 5 5 6 6 6 5 5 5 5 5 7 6 4 5 6 7 7 5 4 4 5 6 6 6 5 4 3 2 3 3 3 4 4 6 6 8 9 10 10 10 10 10 10 10 10 10 9 9 9 9 10 10 10 9 10 10 10 10 9 8 8 8 8 9 9 9 9 9 9 9 9 9 9 10 10 9
13 12 11 10 9 10 10 8 6 6 6 7 6 6 8 7 6 7 6 6 7 6 4 5 6 7 7 5 3 4 5 6 6 5 6 5 3 3 3 4 4 5 5 6 7 8 9 10 10 10 10 10 10 10 10 10 10 9 9 9 10 10 10 10 10 10 10 10 9 9 8 8 8 9 10 10 10 10 10 10 10 10 10 10 10 10
13 12 11 11 9 9 11 9 7 6 7 8 7 7 8 9 8 9 7 7 8 5 4 5 6 7 7 4 4 4 4 5 6 6 5 5 3 3 3 4 4 5 5 6 7 8 9 9 10 9 10 10 10 10 10 10 10 9 9 9 9 9 10 10 9 10 10 9 9 9 9 9 9 10 11 11 11 11 11 11 11 11 11 11 11 11
13 11 11 12 8 7 10 10 8 7 7 8 7 8 9 9 9 9 9 9 9 6 4 5 6 7 6 4 4 4 4 5 6 6 5 4 3 3 4 4 4 5 5 6 7 8 9 9 9 9 9 9 9 10 10 10 10 9 9 9 9 9 9 9 9 9 9 9 10 10 10 10 10 11 11 12 12 12 12 12 13 12 12 12 12 13
12 9 7 8 8 8 9 10 9 8 7 7 7 9 9 8 8 9 9 9 10 8 5 5 7 7 6 5 4 4 5 5 6 6 5 5 4 4 4 5 5 6 6 7 7 8 8 9 9 9 9 9 9 9 9 9 9 9 9 9 9 9 9 9 10 10 10 10 10 10 10 11 11 11 12 12 13 13 13 13 13 13 13 13 14 14
12 8 6 7 8 8 8 8 9 9 7 6 7 8 7 8 9 10 8 7 9 9 7 6 8 6 5 6 5 4 5 6 7 7 6 6 5 5 5 5 6 6 7 7 7 8 8 8 9 9 9 9 9 9 9 9 8 8 8 8 9 9 9 10 10 10 10 10 11 11 11 12 12 13 13 14 14 15 14 14 14 14 14 15 15 15
10 8 7 7 6 6 6 6 7 8 8 8 8 7 7 8 9 9 9 9 9 9 8 8 10 8 7 7 6 5 5 6 8 8 7 7 7 6 6 6 6 6 7 7 7 8 8 8 9 9 9 9 9 9 8 8 8 8 8 8 9 9 10 10 10 11 11 11 12 12 13 13 14 14 15 15 16 16 16 15 15 15 15 16 16 16
8 7 7 7 6 5 6 6 6 6 7 9 9 8 8 10 9 8 10 10 9 10 9 8 10 9 8 7 6 7 7 7 8 8 8 8 8 7 6 6 6 6 7 8 8 8 8 8 9 9 9 9 9 8 8 8 8 9 9 9 9 9 10 10 11 11 12 12 13 13 14 15 15 16 16 17 17 17 17 17 17 17 17 17 17 17
9 7 6 8 7 6 7 7 7 6 6 8 9 9 10 10 10 10 10 11 11 11 10 9 10 8 6 7 8 8 8 8 9 9 9 9 8 8 7 7 7 7 8 8 9 8 8 8 9 9 9 9 9 9 8 9 9 9 9 10 10 10 11 11 12 12 13 13 14 15 15 16 16 17 17 18 18 18 18 18 18 18 18 18 18 18
9 8 6 7 8 7 7 7 8 8 8 9 9 10 10 10 10 10 11 11 11 12 11 11 10 7 6 8 10 8 8 9 9 9 10 9 9 8 8 8 8 8 8 9 9 8 8 8 9 9 9 9 9 9 9 10 10 10 10 11 11 11 12 12 13 14 15 15 16 16 17 17 18 18 18 19 19 19 19 19 19 19 19 19 19 19
9 9 7 7 8 7 6 6 7 8 8 9 10 10 10 10 10 11 11 10 11 12 11 12 12 8 7 9 10 9 9 9 9 9 9 9 9 9 9 9 8 8 9 9 9 8 8 9 9 9 9 10 10 10 10 11 11 11 12 12 12 13 13 14 15 16 17 17 17 18 19 19 19 20 20 20 20 20 20 20 20 20 20 20 20 20
8 8 9 7 6 6 5 6 7 7 8 9 9 10 10 11 11 12 12 11 11 11 11 12 12 9 8 10 10 9 8 8 9 9 9 9 9 9 9 9 9 9 9 9 9 9 9 10 10 10 10 11 11 11 11 12 12 13 13 13 14 14 15 16 17 18 19 19 20 20 20 21 21 22 22 22 22 22 22 22 22 22 22 22 21 21
8 9 9 8 6 5 5 5 6 7 8 9 9 9 10 11 11 12 12 12 12 12 11 12 11 8 8 10 9 8 7 8 9 9 9 10 10 10 10 9 9 9 9 9 9 10 10 10 10 11 11 12 12 12 13 13 13 14 15 15 15 16 17 18 19 20 21 21 21 22 22 22 23 24 24 24 24 24 24 23 23 23 23 23 22 22
10 9 9 8 7 7 7 7 7 8 9 9 8 8 10 10 10 11 11 11 12 12 12 13 11 8 9 10 9 8 8 8 9 9 9 10 10 10 9 9 10 10 10 10 10 10 11 11 12 12 13 13 13 14 14 15 15 15 16 17 17 18 19 20 21 22 22 23 23 23 24 24 25 26 26 25 25 25 25 25 25 25 24 24 24 24
9 8 9 9 9 8 8 8 8 8 9 9 8 9 10 10 10 10 11 11 11 11 12 13 12 9 10 10 9 8 9 9 9 10 9 10 10 9 9 9 10 10 9 10 10 11 12 13 13 14 14 14 14 15 16 16 16 17 17 18 18 20 21 22 23 24 24 24 25 25 25 26 27 28 28 27 27 26 26 26 26 26 26 25 25 25
9 8 8 9 9 9 8 8 9 10 10 9 9 9 9 10 10 11 12 12 12 12 12 12 11 10 10 10 9 8 9 9 10 10 9 9 9 8 9 9 9 10 10 10 11 13 14 14 15 15 15 15 16 17 17 17 17 18 18 19 20 22 23 24 25 25 25 26 26 27 28 28 29 29 29 29 28 28 27 27 27 27 26 26 26 26
9 8 8 8 8 8 8 8 9 10 10 9 9 9 9 9 10 11 11 11 11 13 12 11 11 11 9 9 9 9 10 10 11 11 11 11 10 10 9 9 9 10 11 12 13 14 15 16 17 17 17 17 17 18 18 18 18 19 20 21 23 24 25 26 27 27 27 28 28 29 29 30 30 30 30 29 29 29 28 28 27 27 27 27 27 27
9 8 8 8 8 8 8 8 9 8 8 8 8 8 8 8 9 10 10 10 11 13 12 12 11 10 9 9 9 10 11 11 10 11 11 11 11 12 11 9 9 11 12 14 15 16 17 18 18 18 18 18 18 18 19 20 21 22 23 24 25 26 27 28 28 29 29 30 30 30 31 31 31 30 30 29 29 29 28 28 28 27 27 27 27 27
9 8 8 9 8 8 9 9 8 8 7 7 8 8 8 8 8 9 10 11 12 12 12 12 10 9 10 10 9 10 10 9 9 10 9 9 10 11 11 10 11 13 14 15 16 17 18 18 19 19 19 19 19 20 21 22 23 24 25 26 27 28 29 30 30 30 31 31 31 31 31 31 31 30 30 30 29 29 29 28 28 28 28 27 27 27
9 9 9 9 8 8 9 9 8 8 7 7 7 8 8 9 9 10 11 12 12 12 11 10 9 8 9 9 8 8 9 9 10 11 10 10 10 11 11 12 13 14 15 15 16 17 18 18 18 19 20 20 21 22 23 24 25 26 27 28 29 30 31 31 31 31 32 32 32 32 31 31 31 30 30 30 29 29 29 28 28 28 28 28 28 28
10 9 9 10 11 10 9 9 9 8 9 8 7 8 9 9 10 10 11 12 12 12 11 10 10 9 8 8 8 8 9 10 11 11 11 11 11 11 12 12 13 14 15 15 16 17 18 18 19 20 21 22 23 24 25 26 27 28 29 30 31 31 31 31 32 32 32 32 32 31 31 31 31 30 30 29 29 29 28 28 28 28 28 28 28 28
10 10 10 11 12 10 9 10 9 10 11 10 8 9 10 10 10 10 10 11 11 11 11 10 10 8 8 9 9 8 9 10 10 11 12 12 12 12 12 13 14 15 16 17 18 19 19 20 21 21 22 23 24 25 26 27 28 29 30 31 31 31 31 31 31 32 32 32 32 31 31 31 30 30 29 29 28 28 28 28 28 28 28 28 28 28
11 11 11 12 12 11 9 9 11 12 12 10 8 10 10 10 10 9 9 9 9 9 8 7 7 6 7 8 9 9 10 11 11 12 12 12 12 13 13 15 16 17 19 20 21 21 21 22 22 23 23 24 25 26 27 28 29 30 30 31 31 31 31 31 31 32 32 32 32 31 31 31 30 30 29 29 28 28 28 28 28 29 29 29 29 29
12 13 12 12 12 11 9 10 12 12 10 8 8 10 9 9 9 8 7 7 7 7 6 6 5 6 7 8 9 10 10 11 11 12 13 13 14 15 16 17 19 20 21 21 22 22 23 23 23 24 25 26 26 27 28 28 29 30 30 31 31 31 31 31 31 31 31 31 31 31 31 31 31 30 30 29 29 29 29 29 29 29 29 29 29 29
13 12 12 12 12 11 10 11 11 9 7 8 9 9 9 9 8 8 7 7 7 8 7 7 6 7 8 9 10 10 10 11 12 13 14 15 16 17 18 19 20 21 22 22 22 22 23 24 24 25 25 26 26 28 28 29 30 30 30 30 30 31 31 31 31 31 31 31 31 31 31 31 31 31 30 30 30 29 29 30 30 30 30 30 30 30
13 12 11 11 11 11 11 10 9 8 9 9 9 9 9 9 9 9 8 7 8 9 9 8 8 9 10 11 11 11 12 13 14 14 15 16 17 18 19 20 21 22 23 23 23 23 23 24 24 24 25 26 27 28 29 29 30 30 30 30 30 31 31 31 31 31 32 32 32 32 32 32 31 31 31 31 30 30 30 30 30 30 30 30 30 30
11 10 10 10 10 10 10 9 9 10 9 8 7 8 8 9 9 10 10 9 9 10 10 9 10 10 11 12 12 13 14 15 15 15 16 17 18 19 20 21 22 23 23 24 24 23 24 24 24 25 26 27 27 28 29 30 30 30 30 30 31 31 31 31 31 31 31 31 31 32 32 31 31 31 31 31 31 31 31 31 31 31 30 30 31 31
10 9 9 10 9 9 10 10 10 9 8 7 8 8 8 9 9 10 11 10 10 10 10 10 11 11 12 13 14 15 16 16 15 16 18 19 20 21 22 23 23 24 23 23 23 24 24 25 25 26 26 27 28 28 29 30 30 30 30 30 31 31 30 31 31 31 31 31 31 31 31 31 30 30 30 31 31 31 31 31 31 30 30 30 30 30
9 9 9 10 9 9 10 10 9 8 7 7 8 9 9 9 10 12 11 10 10 10 11 12 12 13 14 15 16 16 17 17 17 19 20 22 22 22 23 23 23 23 23 24 24 25 26 26 26 27 26 27 28 28 29 30 30 30 30 30 30 30 30 30 30 30 30 30 30 29 29 29 29 29 29 29 30 29 30 30 30 30 30 29 29 29
8 8 9 10 9 9 10 10 9 7 7 8 9 9 9 10 11 12 11 10 10 11 11 12 13 13 15 16 17 17 17 18 19 20 21 22 22 22 23 23 23 23 24 24 25 26 26 26 26 27 27 27 28 29 30 30 30 30 30 29 29 29 29 29 29 29 29 28 28 28 27 27 27 28 28 28 28 28 28 28 28 28 28 28 27 27
8 8 8 9 9 8 9 10 9 7 8 9 9 9 9 11 12 11 11 10 10 11 11 12 13 14 16 17 17 18 18 19 20 20 21 21 22 22 23 23 24 24 25 25 25 26 26 26 27 27 27 27 29 29 29 29 29 29 28 28 28 28 28 28 28 27 27 27 27 26 26 26 26 26 26 26 26 26 26 26 26 25 25 25 25 25
7 8 8 8 8 8 9 9 9 8 8 10 10 10 10 11 11 10 10 10 10 11 12 13 14 16 17 17 17 18 18 19 19 20 21 22 22 23 24 24 24 25 25 26 26 26 27 27 27 27 27 28 28 28 28 28 28 27 27 27 27 27 26 26 26 26 25 25 25 24 24 23 24 24 23 24 24 24 24 23 23 23 23 23 23 24
6 7 7 6 7 8 9 8 9 9 9 10 10 9 9 9 9 9 10 11 11 12 14 14 15 16 17 17 18 18 18 19 20 21 22 23 23 24 24 24 25 25 26 26 26 26 27 27 27 27 27 27 27 27 26 26 26 26 26 26 25 25 24 24 24 24 23 23 22 22 22 21 22 22 22 22 22 22 22 22 22 22 22 22 22 22
5 6 6 6 6 7 7 7 8 8 8 8 8 7 7 8 9 10 11 11 13 14 15 15 15 16 17 17 18 19 19 20 21 22 23 23 24 24 24 25 25 25 25 25 26 26 27 26 26 26 26 25 25 25 24 24 24 24 24 24 23 23 22 22 22 22 22 21 21 21 21 21 21 21 20 21 21 21 21 21 21 20 20 20 21 21
4 6 7 6 6 5 6 6 7 7 6 6 7 7 8 9 10 11 11 12 13 14 15 15 16 16 17 18 19 20 20 21 22 22 23 24 24 24 24 24 24 25 25 25 25 25 25 25 24 24 24 23 23 22 22 22 22 22 22 22 22 21 21 21 21 21 21 21 20 20 20 20 20 20 20 20 20 20 20 20 20 19 19 19 20 20
5 7 7 6 7 7 7 6 6 6 6 7 7 8 9 10 11 12 12 12 13 14 14 15 16 17 18 18 19 20 21 22 23 23 23 23 24 24 24 24 24 24 24 24 23 23 23 23 22 22 21 21 20 20 20 21 21 21 22 22 21 20 20 20 20 20 20 20 20 20 20 20 20 20 19 20 20 19 19 19 19 19 19 19 20 20
6 7 6 6 7 7 7 6 6 7 7 8 9 9 10 11 11 12 12 12 13 13 14 15 16 17 18 19 20 21 21 21 22 23 23 23 23 23 23 23 23 23 22 21 21 21 21 21 20 20 19 19 19 19 20 20 21 21 21 20 19 19 19 19 20 20 20 20 20 20 20 20 20 19 19 19 19 19 19 19 19 19 19 19 19 19
6 7 6 6 6 6 6 6 7 7 8 9 10 10 11 11 11 11 12 12 13 14 15 16 17 18 19 19 20 21 21 21 21 22 22 22 22 22 22 22 22 21 20 19 19 19 19 19 18 18 18 18 18 19 20 20 20 20 20 19 19 18 18 19 20 20 20 20 19 19 19 19 19 19 19 19 19 19 19 19 19 19 19 19 19 18
7 6 6 6 7 7 7 7 8 9 10 10 10 10 11 11 11 11 12 13 14 15 16 17 17 18 19 19 20 20 20 20 21 21 21 21 20 20 20 20 19 18 18 18 18 18 17 17 17 17 17 17 18 19 19 19 19 19 19 18 18 18 18 19 19 19 19 19 19 19 19 19 19 19 19 19 19 19 19 19 19 18 19 19 18 17
7 6 7 8 8 7 6 7 9 10 10 9 10 10 10 11 11 12 13 14 15 16 17 17 18 18 19 19 19 19 19 20 20 20 20 19 19 19 18 17 17 17 17 17 17 16 16 16 16 16 17 17 18 18 18 18 18 18 18 18 18 18 18 18 19 19 19 18 18 18 19 19 19 19 19 19 19 19 19 19 19 18 18 18 18 16
Wind_Direction
239 261 259 271 302 321 326 326 326 326 321 318 316 307 297 297 325 359 358 348 313 313 316 311 329 357 355 357 355 358 350 336 4 21 23 23 20 25 32 31 29 31 30 22 19 16 12 13 14 17 20 19 15 11 6 2 359 357 351 346 344 342 335 326 319 316 314 309 307 309 313 313 309 306 302 298 298 295 289 284 281 279 279 280 281 279
234 250 258 277 300 305 310 316 316 314 312 315 320 315 294 291 326 349 343 319 286 303 322 311 300 312 328 338 340 325 287 304 351 5 11 14 14 19 25 29 31 31 27 21 19 16 12 13 14 17 20 18 15 13 11 6 2 359 354 348 345 343 338 333 325 319 315 312 310 310 311 312 311 309 307 306 306 301 293 286 283 282 281 282 283 282
235 244 258 282 285 290 297 302 306 303 299 309 319 318 313 317 329 339 333 305 283 299 314 299 294 307 314 322 322 290 276 324 350 352 359 6 12 19 23 27 28 27 24 21 19 17 17 18 17 17 16 12 10 11 12 8 4 1 358 354 348 343 339 335 330 323 316 312 309 308 307 308 309 307 308 308 306 303 297 292 288 287 286 286 287 286
230 238 257 271 274 287 292 289 297 297 289 297 305 306 324 324 311 323 326 295 286 302 305 292 303 310 299 301 299 282 293 327 344 350 360 9 18 24 26 25 22 23 21 17 17 16 15 17 18 16 12 8 6 4 4 3 2 1 358 354 350 347 345 341 336 331 324 316 311 309 308 309 310 310 310 310 307 304 302 298 295 294 292 292 293 292
234 247 263 262 264 279 286 285 288 289 288 295 297 302 320 319 311 325 328 298 285 293 290 286 306 300 272 273 265 255 272 283 307 340 10 22 24 25 29 25 19 19 16 13 13 11 10 11 11 11 9 8 7 3 0 0 359 358 356 353 350 349 349 348 344 340 335 327 319 315 314 314 315 315 316 315 311 305 302 301 300 298 296 295 296 295
239 254 251 252 263 273 279 284 288 292 292 294 304 310 317 314 310 315 307 289 285 286 275 273 296 300 256 254 247 234 244 251 262 273 22 29 20 20 24 21 16 16 13 11 11 9 7 6 3 3 3 5 6 4 2 0 358 356 354 352 349 347 347 348 347 344 342 336 328 322 320 322 323 324 325 323 317 310 305 303 302 301 299 297 298 297
236 243 239 245 263 271 273 276 283 292 287 290 317 314 309 304 298 297 287 285 296 304 290 271 287 306 272 244 237 233 233 235 248 256 330 348 349 9 12 10 11 11 10 11 13 12 9 5 2 0 0 1 2 1 359 358 357 356 353 350 347 344 343 343 343 343 342 339 334 329 327 328 331 332 332 329 324 319 313 308 305 304 302 300 299 299
230 232 232 238 255 264 266 273 284 285 282 297 319 308 302 299 293 292 285 286 301 309 291 268 277 293 279 239 229 231 228 228 235 244 261 278 322 359 3 6 8 6 7 10 13 13 10 8 5 2 0 359 358 358 356 354 354 353 351 350 347 343 342 341 340 340 341 340 337 333 332 331 334 336 335 333 330 326 323 317 312 309 307 305 303 302
226 227 228 234 248 256 263 285 295 282 283 300 314 304 300 299 294 292 287 288 299 295 279 261 263 279 273 230 232 233 226 227 228 233 244 256 301 340 349 359 2 2 5 8 11 11 9 7 4 2 359 355 355 354 354 353 352 351 350 349 347 344 342 341 340 341 342 341 337 334 333 333 334 336 336 335 332 329 327 323 319 316 314 313 311 308
223 223 227 235 244 254 268 286 285 283 291 297 298 298 297 295 293 290 287 290 292 287 284 263 255 276 276 240 242 238 231 230 229 236 244 252 281 314 331 338 343 354 1 4 9 10 7 3 359 356 353 351 351 350 350 351 349 348 346 346 347 345 341 342 343 344 346 344 341 338 337 337 338 338 338 336 332 328 327 325 324 322 321 320 318 316
219 217 227 236 242 257 269 272 275 282 286 281 283 291 294 295 295 294 295 295 285 282 293 283 266 276 278 264 252 245 239 231 229 238 244 250 266 293 310 313 324 340 351 355 1 4 1 357 353 350 349 348 347 345 345 346 345 345 343 343 345 344 341 342 343 345 348 348 346 344 342 342 343 342 341 339 334 328 324 323 322 320 320 320 319 318
221 217 224 232 239 249 256 259 262 265 263 268 280 286 289 294 297 293 289 289 288 290 295 285 272 271 277 283 269 248 241 234 234 237 235 240 250 271 295 305 313 324 336 343 350 355 353 352 351 348 347 345 344 344 344 344 344 343 342 340 341 341 340 340 340 342 346 349 349 346 343 344 346 345 343 340 336 330 325 321 319 316 314 315 315 314
220 221 225 230 237 243 251 255 250 251 255 261 272 278 286 298 300 294 290 290 298 304 294 284 278 271 277 290 277 244 238 240 245 241 229 230 239 257 282 296 303 311 323 333 341 347 348 349 350 348 346 344 342 343 344 344 344 342 341 340 339 340 340 338 339 340 342 344 346 343 341 341 342 341 339 337 333 329 324 320 319 317 315 313 313 311
213 221 227 230 237 240 244 248 248 253 247 247 264 276 288 304 306 301 302 300 302 307 298 288 280 273 273 279 274 258 246 243 243 238 228 228 239 254 269 284 298 307 318 328 337 343 346 348 349 347 346 344 342 343 344 345 344 343 342 342 342 343 342 342 342 343 344 344 343 341 338 335 333 332 331 330 328 325 322 319 316 316 314 313 312 312
213 222 227 229 237 238 238 244 255 266 248 244 267 281 289 302 307 309 312 311 311 308 292 282 280 283 282 275 276 272 258 244 237 231 227 233 248 260 265 277 292 302 314 326 335 341 345 347 347 347 347 345 344 344 344 345 344 344 344 344 344 344 344 344 344 345 346 345 343 341 337 334 330 329 327 326 325 323 320 317 314 312 310 309 309 309
218 225 222 227 237 241 242 241 245 258 254 251 267 277 289 300 303 307 308 311 313 304 293 285 283 290 289 273 270 268 255 241 233 226 224 234 247 257 264 274 285 297 310 320 330 338 343 345 344 345 346 345 344 343 343 344 345 344 344 344 345 344 343 344 344 344 343 341 340 338 335 332 329 327 325 324 324 323 320 317 313 311 309 308 307 307
220 224 214 223 231 237 247 236 232 249 256 262 270 276 293 301 296 296 297 302 302 297 300 297 289 287 278 269 261 253 251 239 232 229 226 233 241 249 262 273 283 296 307 314 325 333 337 340 341 342 343 344 343 343 342 344 346 347 346 346 346 345 344 344 343 342 340 338 337 334 332 329 326 324 322 321 321 320 319 317 314 311 309 308 307 305
218 219 209 219 220 218 233 229 227 247 260 270 279 281 289 293 288 289 293 296 295 295 299 293 289 287 280 279 264 246 249 238 232 232 229 231 238 247 259 271 282 294 303 312 322 327 330 334 336 338 341 342 342 342 342 343 344 345 346 346 344 343 342 340 339 338 337 335 333 331 329 327 324 321 320 319 318 317 316 315 314 312 310 308 307 305
216 213 202 209 211 205 216 227 231 241 259 274 283 281 283 289 288 285 289 294 296 298 299 293 291 287 284 288 272 251 248 239 235 236 233 232 238 247 256 265 278 290 299 307 314 318 323 328 332 335 337 339 340 339 339 338 338 339 340 341 339 338 337 335 334 332 331 330 328 326 325 324 322 320 318 317 316 316 314 313 312 311 309 308 306 305
212 219 211 207 216 222 223 237 250 250 257 271 277 279 284 290 291 288 288 291 294 297 298 295 293 289 290 297 287 265 248 242 241 239 238 236 239 248 256 265 276 285 295 304 309 313 319 324 328 331 332 333 333 332 331 330 329 329 329 330 332 332 332 331 330 329 327 327 325 324 323 322 321 320 318 317 316 315 313 312 311 309 308 306 305 304
209 222 221 208 219 235 235 246 265 271 272 275 279 283 286 288 288 287 287 287 291 294 295 293 291 291 297 299 294 278 253 245 245 242 243 243 242 250 259 265 273 283 293 301 305 309 315 319 323 325 325 326 324 322 322 321 322 321 320 321 323 324 325 325 326 325 324 323 323 323 322 321 320 319 318 317 315 314 313 311 310 309 307 305 303 302
213 225 231 226 229 239 250 262 271 278 281 283 288 291 291 289 287 287 286 285 286 288 291 291 289 291 298 298 293 282 263 248 243 241 243 244 245 252 259 263 271 282 290 296 302 307 312 315 318 317 317 318 316 316 316 316 316 316 315 315 315 317 319 319 320 320 319 319 318 318 318 318 317 317 316 314 312 311 310 309 308 307 306 304 302 301
217 227 232 239 245 251 263 268 269 278 284 285 290 294 293 289 287 286 287 289 288 285 287 287 285 287 297 298 291 282 268 250 243 241 241 245 248 253 258 262 270 281 289 294 301 306 309 312 314 313 313 313 311 310 311 312 312 312 312 312 311 312 313 314 315 315 315 314 313 313 313 313 313 313 313 312 310 308 307 306 305 304 303 302 301 300
216 227 231 240 250 252 257 259 262 273 280 284 291 296 294 292 291 288 288 291 288 285 287 284 280 285 297 298 291 280 269 254 248 243 242 248 251 254 258 263 271 280 286 293 299 302 305 308 308 310 311 310 308 307 308 308 307 307 308 308 309 310 310 311 311 312 312 311 310 310 310 310 311 311 310 310 308 307 305 304 303 302 301 300 300 299
215 228 231 239 245 245 252 257 260 268 276 284 295 301 299 296 293 288 288 287 284 287 293 287 282 289 295 293 286 274 264 256 252 251 252 254 253 254 259 266 272 277 282 290 296 298 302 305 304 306 309 308 307 307 307 306 304 304 304 305 306 308 309 310 310 310 310 309 307 307 308 308 309 309 309 308 307 306 305 303 302 301 300 299 299 298
218 231 232 242 252 257 265 270 275 281 282 284 292 299 300 296 292 290 288 286 284 289 291 285 284 288 289 287 281 269 263 259 259 261 260 257 255 256 263 269 274 278 282 287 292 295 301 303 303 305 306 306 306 305 305 304 303 302 302 303 304 307 309 309 309 308 308 307 306 306 306 306 307 307 307 306 305 304 303 302 301 300 299 298 297 297
223 236 238 251 264 270 277 281 285 288 286 285 291 298 301 297 290 288 288 288 290 290 287 288 289 286 285 286 279 271 273 275 276 275 271 266 261 262 268 273 276 279 283 286 289 295 300 301 302 302 302 303 303 303 303 303 302 302 301 302 304 306 308 309 308 308 307 306 306 305 305 306 305 305 305 305 304 303 302 300 299 298 297 296 295 294
230 238 243 256 266 273 279 282 285 288 287 288 293 298 303 301 293 289 290 294 294 289 288 295 294 286 287 291 286 284 287 288 290 292 291 286 282 279 277 276 280 283 285 290 293 296 298 298 299 300 299 299 299 300 301 301 301 301 301 302 304 306 307 308 307 307 306 305 304 304 304 305 304 304 303 302 302 301 300 299 298 297 295 294 293 292
242 245 249 255 262 271 278 281 286 289 289 290 293 298 303 305 301 297 298 299 296 290 291 296 292 287 292 296 293 294 293 287 286 287 288 289 290 290 285 280 285 289 290 293 295 296 296 297 298 298 298 298 298 299 300 300 301 302 301 302 304 305 306 306 306 305 304 304 303 303 303 303 303 302 302 301 300 300 299 298 297 296 295 293 292 291
254 253 252 254 260 271 276 279 283 284 285 288 292 296 298 300 301 300 301 301 298 295 294 295 293 292 297 293 287 289 290 289 290 288 287 290 292 290 287 287 295 298 297 297 298 298 298 299 299 300 299 299 299 300 301 301 302 301 302 303 303 304 305 305 304 304 304 304 303 303 303 302 302 301 301 301 300 299 299 298 297 296 295 293 292 291
253 256 253 254 263 271 271 275 278 279 282 284 289 294 293 294 297 297 299 299 297 296 295 293 293 296 298 293 285 286 291 294 296 295 295 299 298 294 293 296 300 301 300 300 301 301 301 301 301 301 300 300 301 301 301 301 302 301 302 303 303 303 304 304 304 304 304 303 303 303 303 302 301 301 300 300 299 298 298 297 296 295 294 293 292 291
250 256 254 256 268 269 262 268 273 274 275 275 285 298 295 295 298 298 299 300 297 296 293 289 292 296 295 290 288 290 291 291 292 294 296 300 298 295 296 298 299 300 301 302 302 302 302 302 302 301 301 301 302 302 301 302 302 302 302 303 303 303 303 303 304 303 303 303 303 303 302 302 301 301 300 299 298 298 297 296 296 295 294 294 293 292
251 256 255 261 273 268 255 262 271 272 273 272 282 296 296 296 297 296 299 302 299 296 293 292 295 298 292 287 287 288 288 289 294 297 298 299 297 295 299 302 303 303 303 303 303 302 302 302 302 302 302 302 301 301 302 302 302 302 302 303 303 303 303 303 303 303 303 303 303 303 303 302 301 300 299 298 297 297 296 296 295 295 294 294 293 292
253 258 260 266 274 269 256 261 269 272 275 277 283 292 295 298 298 296 301 306 303 299 299 299 299 295 290 292 294 294 294 296 298 298 298 299 297 297 301 303 304 304 304 304 303 302 301 301 302 302 302 302 301 302 302 302 303 303 303 303 303 303 303 304 303 303 303 303 303 303 302 301 301 300 299 298 297 296 295 295 294 294 294 294 293 292
253 258 262 265 272 271 262 262 269 274 277 279 286 292 296 299 300 299 301 306 308 305 303 301 297 294 298 303 303 299 297 298 298 297 298 298 299 300 301 303 304 305 304 304 303 302 302 301 302 302 302 302 302 302 303 303 303 304 304 304 304 303 304 303 303 303 303 303 302 302 301 301 300 299 298 297 296 295 295 294 293 293 293 292 292 291
255 257 261 263 267 268 261 261 271 278 275 274 282 287 288 290 291 290 293 301 307 305 302 298 293 294 302 306 302 298 295 295 296 297 298 300 301 302 303 304 305 305 305 304 304 303 302 302 302 302 302 302 303 303 304 304 304 304 304 304 304 304 304 304 303 303 303 303 302 302 301 300 300 299 298 297 296 295 295 294 293 293 292 292 291 290
256 255 256 258 260 262 261 262 270 275 268 266 274 280 283 289 292 291 292 295 298 300 298 293 291 295 303 305 302 297 292 293 295 298 301 303 304 303 304 304 305 305 305 305 303 302 302 302 303 303 303 304 304 305 305 305 305 305 305 305 305 304 304 304 304 304 303 303 303 302 301 300 299 298 298 297 296 295 295 295 294 293 292 292 291 290
254 253 252 253 254 258 261 261 265 271 269 267 275 284 288 291 295 294 291 289 292 296 296 292 292 297 300 302 301 297 294 294 297 299 302 305 305 304 305 305 305 306 306 305 304 303 303 304 304 304 305 305 306 306 306 306 306 306 305 305 305 305 305 305 304 304 304 303 303 302 301 300 299 298 297 297 296 296 295 294 294 293 293 292 291 290
244 247 249 252 252 253 259 263 267 276 279 275 280 286 286 287 292 293 290 287 288 294 295 293 294 297 300 302 301 299 297 297 297 300 303 305 305 305 305 305 305 306 305 305 306 305 305 306 306 305 306 306 307 308 307 307 307 307 306 306 306 305 305 305 305 305 304 304 304 303 302 301 300 299 298 297 297 296 295 294 294 293 293 293 292 291
238 241 246 251 253 253 260 267 274 282 284 282 286 289 286 286 289 289 288 288 290 293 295 295 296 300 301 301 301 301 301 300 299 300 304 305 305 305 306 306 306 306 306 307 307 306 306 307 307 307 307 308 308 308 308 308 308 307 307 306 306 306 306 306 306 305 305 305 304 304 303 303 302 301 301 299 299 298 297 296 295 294 294 294 292 291
238 244 250 255 257 257 262 268 275 281 283 287 292 291 286 283 285 288 291 294 295 296 298 298 300 302 303 303 303 303 303 303 301 302 304 305 305 306 306 307 307 307 308 308 308 308 307 307 307 307 307 307 308 308 308 308 307 307 307 307 307 307 307 306 306 306 306 306 306 306 305 305 304 304 303 302 301 300 299 299 298 296 296 295 294 293
242 246 253 257 261 264 265 269 274 278 286 292 293 291 288 287 289 292 295 296 297 299 301 301 303 304 304 305 305 304 303 304 304 304 305 306 307 307 308 309 309 309 309 309 309 309 308 307 307 308 307 307 308 308 308 308 308 308 308 308 308 308 308 307 308 308 308 308 308 308 307 307 307 306 306 305 305 304 303 302 301 299 298 297 296 295
252 253 252 256 264 267 266 269 274 278 287 292 290 288 292 294 294 294 294 296 299 301 302 304 306 306 305 306 306 305 305 305 306 306 307 308 309 310 310 310 310 310 310 309 310 310 309 308 308 309 308 309 309 309 309 309 310 310 310 310 310 309 309 309 310 310 311 311 311 310 310 309 310 310 310 310 309 308 306 305 304 303 301 300 298 297
259 261 257 262 271 271 270 275 282 286 290 293 292 293 299 300 295 292 295 298 301 302 303 305 306 307 307 307 306 307 307 307 308 309 309 310 310 310 310 311 311 310 310 310 311 311 311 310 310 310 310 310 311 311 311 312 312 313 313 313 313 312 312 312 313 313 313 314 314 314 313 313 314 315 314 314 313 312 311 310 309 307 305 304 302 301
258 261 265 271 275 279 285 286 286 288 291 295 298 299 301 301 298 298 301 303 303 304 305 305 305 307 308 308 308 308 309 309 310 310 310 310 310 310 310 310 311 311 311 311 312 312 312 312 312 312 312 313 313 313 314 315 315 316 317 317 317 316 315 315 316 316 316 316 317 317 316 316 317 318 318 317 317 317 316 315 314 313 311 310 308 306
252 262 271 272 266 277 293 292 286 288 292 296 300 299 300 302 304 305 307 307 306 307 307 307 308 309 310 310 310 310 311 311 310 310 310 310 310 310 311 311 312 312 312 313 314 314 315 315 315 315 316 315 316 317 317 318 318 319 319 319 319 318 317 317 318 318 318 319 319 319 319 319 319 319 320 319 319 320 319 319 318 317 316 316 315 312
261 271 273 269 265 272 282 284 285 289 292 294 298 301 304 307 308 308 309 308 308 309 309 309 310 310 310 311 311 311 311 312 311 311 310 310 311 312 312 313 314 315 316 316 317 317 318 318 319 319 319 319 319 320 321 321 322 321 320 320 320 319 319 319 319 319 320 320 320 321 321 321 320 319 320 320 320 321 321 320 319 319 320 321 320 319
270 273 272 275 279 280 279 276 282 292 296 298 300 301 304 308 309 309 309 308 308 310 311 311 311 311 312 312 312 311 311 312 312 312 311 312 313 313 315 317 318 318 318 319 319 320 320 321 322 323 323 323 323 324 325 325 325 325 325 324 323 322 321 320 320 320 321 321 322 322 322 322 322 321 321 321 322 322 322 322 320 320 321 322 321 320
273 271 273 278 282 285 281 273 278 290 296 298 302 303 304 306 307 306 307 308 309 311 312 313 313 314 313 313 312 312 312 313 314 314 314 315 315 316 318 320 321 320 321 321 322 323 323 323 324 326 327 327 327 327 328 328 329 329 328 327 326 324 323 322 322 322 322 323 323 324 324 324 324 323 323 323 323 323 323 323 322 321 321 322 321 320
275 273 277 279 280 283 278 270 279 292 293 292 297 302 302 303 304 305 307 310 311 312 312 313 313 314 314 314 314 314 315 316 317 317 317 317 318 320 323 323 323 323 323 324 325 326 326 326 327 328 328 329 329 329 330 331 332 332 331 331 329 328 326 326 326 325 325 325 325 326 326 326 326 326 325 324 324 323 323 324 324 323 323 323 322 321
286 285 288 290 290 289 278 273 286 296 296 293 296 299 301 302 304 307 309 311 313 314 315 315 315 315 315 316 316 317 318 319 320 320 320 320 321 324 326 327 326 326 327 327 328 329 329 330 330 330 330 330 330 331 333 334 334 334 335 335 334 333 333 332 331 329 329 328 328 328 327 327 327 327 326 325 324 324 324 324 325 325 325 325 324 324